User: anonymous   Login
Location: Ajisawe
(8.4333°N, 4.3833°E)
Time: 13:53:30
(UTC+00:00)
Language:

Cosmos 1844 Rocket - Orbit

View from above orbital plane
View from above orbital plane
View from above satellite
View from above satellite

Ground track
Ground track

The orbit data is extracted from the following two-line orbital elements,

1 17974U 87041B   20218.70399928 -.00000024 +00000-0 +11636-4 0  9996
2 17974 071.0075 016.3023 0011786 083.2683 287.8227 14.17264948718781
Epoch (UTC): 05 August 2020 16:53:45
Eccentricity: 0.0011786
inclination: 71.0075°
perigee height: 826 km
apogee height: 843 km
right ascension of ascending node: 16.3023°
argument of perigee: 83.2683°
revolutions per day: 14.17264948
mean anomaly at epoch: 287.8227°
orbit number at epoch: 71878

The dashed part of the orbit path shows where the satellite is in the earth's shadow,  

DLR